User: anonymous   Login
Location: Laverne
(36.7100°N, 99.8930°W)
Time: 06:35:31
(UTC-06:00)
Language:

Iridium 32 - Orbit

View from above orbital plane
View from above orbital plane
View from above satellite
View from above satellite

Ground track
Ground track

The orbit data is extracted from the following two-line orbital elements,

1 24945U 97051B   14329.46194777  .00000290  00000-0  96617-4 0  1020
2 24945 086.3945 317.8213 0002182 106.1541 253.9895 14.34215710900443
Epoch (UTC): 25 November 2014 11:05:12
Eccentricity: 0.0002182
inclination: 86.3945°
perigee height: 776 km
apogee height: 779 km
right ascension of ascending node: 317.8213°
argument of perigee: 106.1541°
revolutions per day: 14.34215710
mean anomaly at epoch: 253.9895°
orbit number at epoch: 90044

The dashed part of the orbit path shows where the satellite is in the earth's shadow,  

DLR